Miscellaneous Local Product
Issued by NWS North Platte, NE

Home | Current Version | Previous Version | Text Only | Print | Product List | Glossary On
Versions: 1 2 3 4 5 6 7 8 9 10 11 12 13 14 15 16 17 18 19 20 21 22 23 24 25 26 27 28 29 30 31 32 33 34 35 36 37 38 39 40 41 42 43 44 45 46 47 48 49 50
000
AXUS43 KLBF 191510
MISLBF


WESTERN AND NORTH CENTRAL NEBRASKA HOURLY WEATHER ROUNDUP
NATIONAL WEATHER SERVICE NORTH PLATTE NE
1000 AM CDT SUN APR 19 2015

***STATIONS NOT REPORTING VARIABLES SUCH AS SKY/WEATHER OR
PRESSURE ARE PROVIDED BY THE NEBRASKA DEPARTMENT OF
ROADS...RAWS...AND APRS NETWORKS...AND ARE NOT UNDER
NATIONAL WEATHER SERVICE QUALITY CONTROL***

...OBSERVATIONS IN AND NEAR THE EASTERN PANHANDLE OF NEBRASKA...

CITY           SKY/WX    TMP DP  RH WIND       PRES   REMARKS
PINE RIDGE     SUNNY     44  25  47 NW16G31   30.07S
CHADRON        SUNNY     44  30  57 NW17      30.11S
ALLIANCE       MOSUNNY   43  29  57 NW20G28   30.07S
SIDNEY         SUNNY     42  30  62 N23G33    30.08S
WHITECLAY        N/A     41  23  48 NW20        N/A
CRESCENT LAKE    N/A     42  29  59 N23G31      N/A
BIG SPRINGS      N/A     44  37  75 NW9         N/A
$$

...OBSERVATIONS IN NORTH CENTRAL NEBRASKA...

CITY           SKY/WX    TMP DP  RH WIND       PRES   REMARKS
VALENTINE      SUNNY     47  31  53 NW23G35   29.98F
THEDFORD       MOSUNNY   47  32  57 N26G39    29.97S
AINSWORTH      PTSUNNY   44  34  66 NW24G32   29.95F
O`NEILL        CLOUDY    48  37  64 NW30G36   29.88S
ORD            CLOUDY    47  36  65 N26G39    29.87R
BROKEN BOW     CLOUDY    46  38  73 N31G41    29.90R
BROWNLEE         N/A     49  26  40 N33         N/A
SPRINGVIEW       N/A     45  35  67 NW12G20     N/A
BREWSTER         N/A     46  32  60 S26         N/A
ROSE             N/A     46  36  68 SW23        N/A
NEWPORT          N/A     46  31  57 W25         N/A
SARGENT          N/A     45  38  77 NW7G16      N/A
COMSTOCK         N/A     47  39  74 S21         N/A
EWING            N/A     47  41  79 N14G26      N/A
$$

...OBSERVATIONS IN SOUTHWEST NEBRASKA AND FAR NORTHEAST COLORADO...

CITY           SKY/WX    TMP DP  RH WIND       PRES   REMARKS
WRAY           FAIR      46  35  64 N24G36    30.06R
HOLYOKE        FAIR      46  32  57 N26G38    30.05S
IMPERIAL       PTSUNNY   47  35  63 N28G39    30.02R
OGALLALA       MOSUNNY   47  32  55 N26G33    30.04R
NORTH PLATTE   PTSUNNY   49  35  58 N28G40    29.96S
MCCOOK         CLOUDY    47  41  80 N15       29.97R
LEXINGTON      CLOUDY    46  40  77 N22G31    29.92R
PAXTON           N/A     45  38  77 NW12        N/A
SUTHERLAND       N/A     41  30  63 SE17        N/A
BRADY            N/A     46  37  70 S3G16       N/A
GOTHENBURG       N/A     45  37  73 N20         N/A
CALLAWAY         N/A     44  40  87 N25         N/A
$$

...NORTH PLATTE AREA...

CITY           SKY/WX    TMP DP  RH WIND       PRES   REMARKS
AIRPORT        PTSUNNY   49  35  58 N28G40    29.96S
DOWNTOWN         N/A     47  33  57 N16G26      N/A
$$

...SOME WEATHER OBSERVATIONS FROM AROUND THE REGION...

CITY           SKY/WX    TMP DP  RH WIND       PRES   REMARKS
DENVER         PTSUNNY   40  26  57 N21G28    30.14R WCI  30
LARAMIE        SUNNY     25  21  85 NW10      30.14S WCI  15
CHEYENNE       SUNNY     33  21  61 N17G25    30.13S WCI  22
SCOTTSBLUFF    MOSUNNY   44 N/A N/A NW22G31   30.12S
RAPID CITY     SUNNY     44  26  49 NW29G39   30.06F
PIERRE         SUNNY     47  34  60 NW24G31   29.94F
WINNER         FAIR      48  31  51 NW29G38   29.94S
SIOUX FALLS    CLOUDY    51  46  83 NW18      29.76R
OMAHA          LGT RAIN  54  52  93 NW15      29.73S FOG
GRAND ISLAND   LGT RAIN  48  44  86 N18G24    29.86R
KANSAS CITY    PTSUNNY   59  54  83 NW9       29.70F
WICHITA        CLOUDY    56  50  80 NW3       29.75F
HAYS           CLOUDY    54  45  71 N20G25    29.84R
LIBERAL        CLOUDY    48  39  71 NW28G35   29.91R
GOODLAND       CLOUDY    42  38  85 N21G31    30.01R
$$



USA.gov is the U.S. government's official web portal to all federal, state and local government web resources and services.